Miscellaneous Local Product
Issued by NWS Hastings, NE

Home | Current Version | Previous Version | Graphics & Text | Print | Product List | Glossary On
Versions: 1 2 3 4 5 6 7 8 9 10 11 12 13 14 15 16 17 18 19 20 21 22 23 24 25 26 27 28 29 30 31 32 33 34 35 36 37 38 39 40 41 42 43 44 45 46 47 48 49 50
000
AXUS43 KGID 222202
MISGRI

GID CWA HOURLY WEATHER ROUNDUP
NATIONAL WEATHER SERVICE HASTINGS NE
500 PM CDT FRI AUG 22 2014

NOTE: "FAIR" INDICATES FEW OR NO CLOUDS BELOW 12,000 FEET WITH NO
SIGNIFICANT WEATHER AND/OR OBSTRUCTIONS TO VISIBILITY.

...SOUTH CENTRAL NEBRASKA...

CITY           SKY/WX    TMP DP  RH WIND       PRES   REMARKS
GRAND ISLAND   MOSUNNY   88  74  63 E14       29.93F HX  96
HASTINGS       PTSUNNY   85  72  65 NE14      29.93S HX  91
KEARNEY        MOSUNNY   84  73  70 NE13      29.94F HX  91
ORD            MOSUNNY   87  69  54 NE10G20   29.94F HX  91
YORK           PTSUNNY   84 N/A N/A E3        29.93S
AURORA         PTSUNNY   85  77  75 E6        29.93F HX  96
LEXINGTON      MOSUNNY   87  70  56 E13G20    29.96S HX  92
HOLDREGE       MOSUNNY   86  71  62 E12       29.95R HX  91
HEBRON         MOSUNNY   88  69  53 N5        29.91S HX  91

...NEBRASKA PANHANDLE...

CITY           SKY/WX    TMP DP  RH WIND       PRES   REMARKS
CHADRON        CLOUDY    74  58  57 E9        30.02F
ALLIANCE       CLOUDY    71  57  61 SE18      30.06S
SCOTTSBLUFF    LGT RAIN  73  62  68 E17       30.03F
SIDNEY         CLOUDY    66  62  87 W5        30.09S

...WESTERN AND NORTH CENTRAL NEBRASKA...

CITY           SKY/WX    TMP DP  RH WIND       PRES   REMARKS
VALENTINE      CLOUDY    81  60  48 S3        30.02R
AINSWORTH      CLOUDY    76  66  69 CALM      30.02S
ONEILL         CLOUDY    82  70  67 E9        29.99F
BROKEN BOW     PTSUNNY   85  69  58 NE12      29.97F
IMPERIAL       CLOUDY    82  56  40 N8        30.02S
NORTH PLATTE   CLOUDY    85  63  47 NE9       29.99F
MCCOOK         MOSUNNY   87  64  46 E13       29.95F

...EASTERN NEBRASKA...

CITY           SKY/WX    TMP DP  RH WIND       PRES   REMARKS
NORFOLK        MOSUNNY   88  71  57 NE7       29.93F HX  94
SO SIOUX CITY  MOSUNNY   89  75  63 NE10      29.92S HX  99
TEKAMAH        PTSUNNY   88  78  72 NE7       29.91S HX 101
COLUMBUS       PTSUNNY   84  73  70 E12G18    29.93S HX  91
ALBION         MOSUNNY   87  69  55 NE8       29.95F HX  91
OMAHA EPPLEY   TSTM      78  74  87 W6        29.91R
OFFUTT AFB     TSTM      82  81  94 SE10      29.91S HX  95
MILLARD        CLOUDY    80  72  76 NE5       29.91R THUNDER
LINCOLN        PTSUNNY   90  73  57 SE10      29.90S HX  98
NEBRASKA CITY  CLOUDY    79  74  85 SE5       29.92F
BEATRICE       CLOUDY    84  72  65 E7        29.90F
FALLS CITY     TSTM      79  75  87 SE3       29.88F

...NORTHERN KANSAS...

CITY           SKY/WX    TMP DP  RH WIND       PRES   REMARKS
GOODLAND       PTSUNNY   87  63  44 E16G25    29.96F
HILL CITY      MOSUNNY   91  67  44 E10       29.91S HX  94
NORTON         PTCLDY    88  64  45 N10       29.93R
PHILLIPSBURG   SUNNY     93  68  43 E14       29.88F HX  97
SMITH CENTER   SUNNY     90  70  51 E7        29.89F HX  95
BELOIT         SUNNY     93  72  49 E9        29.85S HX 100
HAYS           MOSUNNY   99  66  34 SE13G18   29.84F HX 102
RUSSELL        MOSUNNY   99  63  30 S20G25    29.82F HX 101
CONCORDIA      MOSUNNY   88  75  65 SE9       29.87F HX  97
SALINA         MOSUNNY   97  70  41 SE13      29.84F HX 103
TOPEKA         CLOUDY    93  70  46 CALM      29.90S HX  99



USA.gov is the U.S. government's official web portal to all federal, state and local government web resources and services.